Change the Weather History Date:

Friday, December 13, 2013

  Actual Average (KYKM) Record (KYKM)
Temperature  
Mean Temperature 34 °F 28 °F  
Max Temperature 51 °F 36 °F 57 °F (1946)
Min Temperature 18 °F 21 °F -8 °F (1972)
Degree Days  
Heating Degree Days 30 37  
Month to date heating degree days 458  
Since 1 July heating degree days 1991  
Cooling Degree Days 0 0  
Month to date cooling degree days 0  
Year to date cooling degree days 472  
Moisture  
Dew Point 25 °F    
Average Humidity 76    
Maximum Humidity 85    
Minimum Humidity 54    
Precipitation  
Precipitation 0.00 in 0.04 in 1.30 in (1977)
Month to date precipitation 0.62  
Year to date precipitation 7.34  
Snow  
Snow 0.00 in 0.20 in 3.70 in (1961)
Month to date snowfall 3.7  
Year to date snowfall 15.9  
Since 1 July snowfall 7.3  
Snow Depth -    
Sea Level Pressure  
Sea Level Pressure 30.30 in    
Wind  
Wind Speed 4 mph (WNW)    
Max Wind Speed 24 mph    
Max Gust Speed -    
Visibility 7 miles    
Events      
T = Trace of Precipitation, MM = Missing Value Source: NWS Daily Summary

Daily Weather History Graph

Daily Weather History Graph

Search for Another Location

Airport or City:

Trip Planner

Search our weather history database for the weather conditions in past years. The results will help you decide how hot, cold, wet, or windy it might be!

Date:

Astronomy

Dec. 13, 2013 Rise Set
Actual Time 7:40 AM PST 4:12 PM PST
Civil Twilight 7:04 AM PST 4:48 PM PST
Nautical Twilight 6:25 AM PST 5:27 PM PST
Astronomical Twilight 5:48 AM PST 6:04 PM PST
Moon 2:07 PM PST (12/13) 3:57 AM PST (12/13)
Length of Visible Light 9h 43m
Length of Day
8h 32m
Waxing Gibbous, 88% of the Moon is Illuminated
Dec 13
Waxing Gibbous
Dec 17
Full
Dec 25
Last Quarter
Jan 1
New
Jan 7
First Quarter

Hourly Weather History & Observations

Time (PST) Temp. Windchill Dew Point Humidity Pressure Visibility Wind Dir Wind Speed Gust Speed Precip Events Conditions
12:31 AM 21.9 °F - 17.1 °F 82% 30.15 in 5.0 mi Calm Calm - N/A   Haze
12:53 AM 21.0 °F 14.6 °F 17.1 °F 85% 30.22 in 5.0 mi NW 4.6 mph - N/A   Mostly Cloudy
1:02 AM 21.0 °F 16.2 °F 17.1 °F 85% 30.15 in 5.0 mi West 3.5 mph - N/A   Scattered Clouds
1:53 AM 19.9 °F 13.4 °F 16.0 °F 85% 30.22 in 5.0 mi East 4.6 mph - N/A   Partly Cloudy
2:53 AM 21.0 °F 14.6 °F 16.0 °F 81% 30.23 in 5.0 mi East 4.6 mph - N/A   Haze
3:53 AM 19.0 °F 10.0 °F 14.0 °F 81% 30.25 in 5.0 mi ENE 6.9 mph - N/A   Haze
4:53 AM 18.0 °F - 12.9 °F 81% 30.25 in 6.0 mi Calm Calm - N/A   Haze
5:53 AM 18.0 °F - 14.0 °F 84% 30.25 in 6.0 mi Calm Calm - N/A   Partly Cloudy
6:53 AM 21.0 °F - 16.0 °F 81% 30.27 in 6.0 mi Calm Calm - N/A   Haze
7:53 AM 19.9 °F - 15.1 °F 81% 30.28 in 4.0 mi Calm Calm - N/A   Haze
8:43 AM 19.9 °F - 15.1 °F 81% 30.23 in 4.0 mi Calm Calm - N/A   Haze
8:53 AM 21.9 °F - 17.1 °F 82% 30.31 in 5.0 mi Calm Calm - N/A   Haze
9:45 AM 26.1 °F - 19.9 °F 78% 30.25 in 5.0 mi Calm Calm - N/A   Haze
9:53 AM 27.0 °F 21.6 °F 21.0 °F 78% 30.32 in 6.0 mi SE 4.6 mph - N/A   Haze
10:53 AM 28.9 °F 25.2 °F 23.0 °F 78% 30.32 in 4.0 mi SE 3.5 mph - N/A   Haze
11:20 AM 30.0 °F 26.5 °F 24.1 °F 79% 30.26 in 5.0 mi SE 3.5 mph - N/A   Haze
11:53 AM 33.1 °F - 26.1 °F 75% 30.32 in 6.0 mi Calm Calm - N/A   Haze
12:53 PM 43.0 °F 40.3 °F 30.0 °F 60% 30.30 in 10.0 mi South 4.6 mph - N/A   Clear
1:53 PM 46.0 °F - 30.0 °F 54% 30.31 in 10.0 mi Calm Calm - N/A   Clear
2:53 PM 51.1 °F - 36.0 °F 56% 30.30 in 10.0 mi WNW 15.0 mph - N/A   Clear
3:53 PM 46.0 °F 41.4 °F 36.0 °F 68% 30.34 in 10.0 mi West 9.2 mph - N/A   Clear
4:53 PM 45.0 °F 37.6 °F 35.1 °F 68% 30.35 in 10.0 mi NNW 17.3 mph - N/A   Clear
5:53 PM 43.0 °F 36.4 °F 35.1 °F 74% 30.37 in 10.0 mi NW 12.7 mph - N/A   Partly Cloudy
6:53 PM 45.0 °F 36.2 °F 36.0 °F 71% 30.35 in 10.0 mi NW 24.2 mph - N/A   Clear
7:53 PM 45.0 °F 38.9 °F 36.0 °F 71% 30.38 in 10.0 mi NW 12.7 mph - N/A   Clear
8:53 PM 45.0 °F - 36.0 °F 71% 30.39 in 10.0 mi Calm Calm - N/A   Clear
9:53 PM 45.0 °F 37.9 °F 37.0 °F 74% 30.39 in 10.0 mi WNW 16.1 mph - N/A   Mostly Cloudy
10:53 PM 44.1 °F 38.6 °F 36.0 °F 73% 30.40 in 10.0 mi West 10.4 mph - N/A   Mostly Cloudy
11:53 PM 44.1 °F 37.7 °F 36.0 °F 73% 30.40 in 10.0 mi WNW 12.7 mph - N/A   Overcast